This demonstration page uses our WeatherBlox Daily Observations layout. Learn more.

Left ArrowRight Arrow

Hourly Observations for March 14, 2020

Temp ( °F °C ) Dew Point ( °F °C ) Humidity (%) Winds ( mph kmh ) Pressure ( in mb ) Visibility ( mi km ) Precip ( " mm )
12:53 am 00:53 Clear 34 1.1 29 -1.7 82 82 N N/A 30.42 1030 10 16.0934 N/A
1:53 am 01:53 Clear 34 1.1 30 -1.1 85 85 N N/A 30.43 1030 10 16.0934 N/A
2:53 am 02:53 Clear 33 0.6 29 -1.7 85 85 N N/A 30.45 1031 10 16.0934 N/A
3:53 am 03:53 Clear 35 1.7 31 -0.6 85 85 N N/A 30.43 1031 10 16.0934 N/A
4:53 am 04:53 Cloudy 36 2.2 32 undefined 86 86 N N/A 30.43 1031 10 16.0934 N/A
5:53 am 05:53 Cloudy 38 3.3 33 0.6 83 83 N N/A 30.42 1030 10 16.0934 N/A
6:53 am 06:53 Cloudy 39 3.9 33 0.6 79 79 N N/A 30.43 1031 10 16.0934 N/A
7:53 am 07:53 Cloudy 40 4.4 30 -1.1 68 68 N N/A 30.44 1031 10 16.0934 N/A
8:53 am 08:53 Cloudy 41 5 30 -1.1 65 65 N N/A 30.45 1031 10 16.0934 N/A
9:53 am 09:53 Cloudy 42 5.6 31 -0.6 65 65 NE 6 9 30.47 1032 10 16.0934 N/A
10:53 am 10:53 Cloudy 43 6.1 25 -3.9 49 49 ENE 12 19 30.45 1031 10 16.0934 N/A
11:53 am 11:53 Cloudy with Light Rain 43 6.1 26 -3.3 51 51 ENE 6 9 30.48 1032 10 16.0934 0.001 0.001
12:53 pm 12:53 Cloudy with Light Rain 41 5 29 -1.7 62 62 E 9 15 30.45 1031 7 11.26538 0.001 0.001
1:53 pm 13:53 Cloudy with Light Rain 38 3.3 33 0.6 83 83 N 3 6 30.45 1031 5 8.0467 0.14 3.556
2:50 pm 14:50 Cloudy with Rain 36 2 34 1 93 93 NE 8 13 30.45 1031 3 4.82802 0.11 2.794
2:53 pm 14:53 Cloudy with Rain 36 2.2 34 1.1 93 93 ENE 9 15 30.43 1031 3 4.82802 0.11 2.794
3:25 pm 15:25 Cloudy with Light Rain 36 2.2 33 0.6 89 89 ENE 10 17 30.43 1030 5 8.0467 0.04 1.016
3:53 pm 15:53 Cloudy with Light Rain 36 2.2 33 0.6 89 89 ENE 9 15 30.41 1030 6 9.65604 0.07 1.778
4:15 pm 16:15 Cloudy with Light Rain 36 2.2 34 1.1 93 93 NE 12 19 30.42 1030 7 11.26538 0.001 0.001
4:33 pm 16:33 Cloudy with Light Rain 36 2.2 33 0.6 89 89 NE 12 19 30.41 1030 10 16.0934 0.001 0.001
4:53 pm 16:53 Cloudy 36 2.2 33 0.6 89 89 ENE 14 22 30.4 1029 10 16.0934 0.001 0.001
5:21 pm 17:21 Cloudy 36 2.2 34 1.1 93 93 NE 7 11 30.41 1030 10 16.0934 N/A
5:42 pm 17:42 Cloudy with Light Rain 36 2.2 34 1.1 93 93 NE 12 19 30.42 1030 8 12.87472 0.01 0.254
5:53 pm 17:53 Cloudy with Light Rain 36 2.2 34 1.1 93 93 ENE 12 19 30.41 1030 6 9.65604 0.01 0.254
6:53 pm 18:53 Cloudy with Light Rain 36 2.2 33 0.6 89 89 ENE 13 20 30.37 1029 10 16.0934 0.01 0.254
7:29 pm 19:29 Cloudy 36 2.2 34 1.1 93 93 ENE 10 17 30.38 1029 10 16.0934 0.001 0.001
7:53 pm 19:53 Cloudy 36 2.2 33 0.6 89 89 ENE 10 17 30.37 1029 10 16.0934 0.001 0.001
8:53 pm 20:53 Cloudy 36 2.2 32 undefined 86 86 N 8 13 30.46 1031 10 16.0934 N/A
9:17 pm 21:17 Cloudy with Light Rain 35 1.7 33 0.6 93 93 N 6 9 30.48 1032 2.5 4.02335 0.01 0.254
9:28 pm 21:28 Cloudy with Light Rain 35 1.7 33 0.6 93 93 NNE 8 13 30.48 1032 3 4.82802 0.01 0.254
9:50 pm 21:50 Cloudy with Mist and Fog 36 2 34 1 93 93 NNE 9 15 30.47 1032 3 4.82802 0.01 0.254
9:53 pm 21:53 Cloudy with Mist and Fog 35 1.7 34 1.1 96 96 NE 9 15 30.45 1031 4 6.43736 0.01 0.254
10:53 pm 22:53 Cloudy 36 2 N/A N/A NNE 9 15 30.45 1031 10 16.0934 N/A
11:53 pm 23:53 Cloudy 36 2 N/A N/A NNE 10 17 30.45 1031 9 14.48406 N/A

Powered by AerisWeather